Home   Weather   St Helens   Past weeks

Flag for United Kingdom Past Weather in St Helens, England, United Kingdom — Yesterday and Last 2 Weeks

Now
52 °F

Light rain. Passing clouds.


Feels Like: 48 °F
Forecast: 46 / 60 °F
Wind: 10 mph from Northeast

Location: Liverpool Airport

Current Time: May 1, 2017 at 3:30:35 am

Latest Report: May 1, 2017 at 2:50 am


Visibility: N/A

Pressure: 29.50 "Hg

Humidity: 82%

Dew Point: 46 °F

Location of St HelensLocation

Past Weather in St Helens — Graph

°F

St Helens Temperature Yesterday

Maximum temperature yesterday: 63 °F (at 12:50 pm)
Minimum temperature yesterday: 50 °F (at 12:20 am)
Average temperature yesterday: 55 °F

High & Low Weather Summary for the Past Weeks

 TemperatureHumidityPressure
High63 °F (Apr 30, 12:50 pm)100% (Apr 20, 2:50 am)30.63 "Hg (Apr 20, 2:50 am)
Low36 °F (Apr 25, 5:50 am)34% (Apr 24, 6:20 pm)29.47 "Hg (Apr 30, 3:20 pm)
Average49 °F73%30.18 "Hg
* Reported Apr 16 2:20 am — May 1 2:20 am, St Helens, Weather by CustomWeather, © 2017

Note: Actual official high and low records may vary slightly from our data, if they occured in-between our weather recording intervals... More about our weather records

Advertising

St Helens Weather History for the Previous 24 Hours

Scroll right to see more
 ConditionsComfort  
Time TempWeatherWind HumidityBarometerVisibility
2:20 am
Mon, May 1
50 °FLight rain. Partly cloudy.9 mph88%29.53 "HgN/A
1:20 am54 °FLight rain. Passing clouds.9 mph77%29.53 "HgN/A
12:50 am54 °FLight rain. Passing clouds.12 mph72%29.53 "HgN/A
12:20 am54 °FClear.12 mph72%29.50 "Hg10 mi
11:50 pm
Sun, Apr 30
54 °FClear.10 mph72%29.50 "Hg10 mi
11:20 pm54 °FClear.8 mph72%29.50 "Hg10 mi
10:50 pm55 °FClear.7 mph72%29.50 "Hg10 mi
10:20 pm54 °FPassing clouds.5 mph72%29.50 "HgN/A
9:50 pm54 °FPassing clouds.3 mph77%29.50 "HgN/A
9:20 pm54 °FLight rain. Passing clouds.3 mph77%29.50 "HgN/A
8:50 pm54 °FLight rain. Passing clouds.8 mph77%29.50 "HgN/A
8:20 pm55 °FScattered clouds.8 mph67%29.50 "HgN/A
7:50 pm57 °FPassing clouds.12 mph63%29.50 "HgN/A
7:20 pm57 °FScattered showers. Partly sunny.12 mph59%29.50 "HgN/A
6:50 pm57 °FScattered showers. Partly sunny.12 mph63%29.47 "HgN/A
6:20 pm57 °FSprinkles. Partly sunny.18 mph63%29.47 "HgN/A
5:50 pm59 °FSprinkles. Scattered clouds.22 mph59%29.47 "Hg6 mi
5:20 pm61 °FPassing clouds.20 mph52%29.47 "HgN/A
4:50 pm61 °FPassing clouds.18 mph52%29.47 "HgN/A
4:20 pm61 °FPassing clouds.18 mph48%29.47 "HgN/A
3:50 pm61 °FPassing clouds.20 mph48%29.47 "HgN/A
3:20 pm61 °FPassing clouds.20 mph45%29.47 "HgN/A
2:50 pm61 °FPassing clouds.20 mph45%29.50 "HgN/A
2:20 pm61 °FPassing clouds.22 mph45%29.50 "HgN/A
1:50 pm61 °FPassing clouds.21 mph45%29.50 "HgN/A
1:20 pm61 °FPassing clouds.23 mph45%29.53 "HgN/A
12:50 pm63 °FPassing clouds.22 mph45%29.53 "HgN/A
12:20 pm61 °FPassing clouds.23 mph48%29.53 "HgN/A
11:50 am61 °FSunny.20 mph48%29.56 "Hg10 mi
11:20 am57 °FSunny.22 mph55%29.56 "Hg10 mi
10:50 am59 °FSunny.21 mph55%29.56 "Hg10 mi
10:20 am57 °FSunny.18 mph55%29.56 "Hg10 mi
9:50 am55 °FSunny.18 mph59%29.59 "Hg10 mi
9:20 am55 °FPassing clouds.18 mph59%29.59 "HgN/A
8:50 am52 °FPassing clouds.21 mph62%29.59 "HgN/A
8:20 am52 °FPassing clouds.21 mph62%29.59 "HgN/A
7:50 am52 °FSunny.21 mph62%29.62 "Hg10 mi
7:20 am52 °FPassing clouds.23 mph62%29.62 "HgN/A
6:50 am50 °FPassing clouds.17 mph67%29.62 "HgN/A
6:20 am50 °FSunny.17 mph67%29.62 "Hg10 mi
5:50 am50 °FSunny.16 mph67%29.65 "Hg10 mi
5:20 am50 °FPassing clouds.17 mph67%29.65 "HgN/A
4:50 am50 °FPassing clouds.17 mph71%29.65 "HgN/A
4:20 am52 °FPassing clouds.17 mph67%29.65 "HgN/A
3:50 am52 °FPassing clouds.17 mph67%29.68 "HgN/A
3:20 am52 °FPassing clouds.20 mph67%29.68 "HgN/A
Weather by CustomWeather, © 2017

See weather overviewHow to use our weather pages